Location: Glums�
(55.3568°N, 11.6856°E)
Time: 20:28:36
(UTC+00:00)

NPP - Pass Details

Date: 07 June 2020
Orbit: 826 x 828 km, 98.7° (Epoch: 11 July)

Event Time Altitude Azimuth Distance (km) Brightness Sun altitude
Rises 01:08:45 0° 17° (NNE) 3,383 8.9 -8.0°
Reaches altitude 10° 01:11:08 10° 19° (NNE) 2,445 7.8 -7.8°
Maximum altitude 01:16:33 75° 105° (ESE) 861 3.8 -7.5°
Drops below altitude 10° 01:21:56 10° 191° (S) 2,427 5.5 -7.1°
Enters shadow 01:22:35 - 192° (SSW) 2,679 5.7 -7.1°
